Regional Weather Roundup
Issued by NWS

Home | Current Version | Previous Version | Text Only | Print | Product List | Glossary On
Versions: 1 2 3 4 5 6 7 8 9 10 11 12 13 14 15 16 17 18 19 20 21 22 23 24 25 26 27 28 29 30 31 32 33 34 35 36 37 38 39 40 41 42 43 44 45 46 47 48 49 50
000
ASUS44 KFWD 280215
RWRTX
NORTH TEXAS HOURLY WEATHER ROUNDUP
NATIONAL WEATHER SERVICE FORT WORTH TX
800 PM CST FRI FEB 27 2015

NOTE: "FAIR" INDICATES FEW OR NO CLOUDS BELOW 12,000 FEET WITH NO
SIGNIFICANT WEATHER AND/OR OBSTRUCTIONS TO VISIBILITY.

TXZ118-119-280300-
DALLAS/FORT WORTH METROPLEX

CITY           SKY/WX    TMP DP  RH WIND       PRES   REMARKS
DFW AIRPORT    LGT SNOW  26  21  81 NE13      30.44S WCI  15
DALLAS LOVE    LGT SNOW  27  21  78 E10       30.45S FOG     WCI  17
FTW MEACHAM    LGT SNOW  25  22  88 N10       30.43R FOG     WCI  15
DAL-EXECUTIVE  LGT SNOW  26  22  84 NE8       30.42S FOG     WCI  18
FTW-ALLIANCE   LGT SNOW  23  20  88 N10       30.44R FOG     WCI  12
FTW-SPINKS     LGT RAIN  27  25  93 NE7       30.44R WCI  19
ARLINGTON      MIX PCPN  27  21  78 NE9       30.44R WCI  18
GRAND PRAIRIE  CLOUDY    26  24  91 NE9       30.45S WCI  17
ADDISON        FLURRIES  27  21  80 NE9       30.45S WCI  17
LANCASTER      CLOUDY    27  20  77 NE8       30.45S WCI  18
$$

TXZ091>094-102>105-117-120-121-131>134-280300-
NORTH CENTRAL TEXAS

CITY           SKY/WX    TMP DP  RH WIND       PRES   REMARKS
SHRMAN/DENISON CLOUDY    24  23  95 NE8       30.48R WCI  15
GAINESVILLE    LGT SNOW  21  18  88 NE8       30.48R WCI  11
BOWIE          LGT SNOW  20  19  93 NE6       30.42S WCI  13
BRIDGEPORT     LGT SNOW  22  22 100 E5        30.45F WCI  16
DECATUR        CLOUDY    21  19  93 NE12      30.41F WCI   9
DENTON         CLOUDY    23  20  88 NE13      30.45S WCI  11
MCKINNEY       CLOUDY    26  22  84 NE8       30.46R WCI  18
GREENVILLE     CLOUDY    28  23  80 NE7       30.46S WCI  21
TERRELL        MIX PCPN  29  22  75 NE8       30.45S WCI  21
WAXAHACHIE     CLOUDY    26  24  92 NE9       30.43R WCI  17
CLEBURNE       CLOUDY    27  25  93 NE9       30.43R WCI  17
GRANBURY       LGT SNOW  26  24  90 N5        30.44R WCI  21
$$

TXZ083>090-098>101-113>116-127>130-139>142-154-155-280300-
WESTERN NORTH TEXAS

CITY           SKY/WX    TMP DP  RH WIND       PRES   REMARKS
WICHITA FALLS  LGT SNOW  19  15  84 E10       30.42F FOG     WCI   7
WF-KICKAPOO    LGT SNOW  22  19  89 NE7       30.44F WCI  13
VERNON         CLOUDY    20  14  80 E8        30.44R WCI  10
ABILENE        CLOUDY    20  18  92 E7        30.34S FOG     WCI  11
ABILENE-DYESS  FRZ DRZL  19  17  91 E8        30.32F FOG     WCI   9
BRECKENRIDGE   LGT SNOW  23  21  93 E6        30.39S WCI  16
GRAHAM         LGT SNOW  21  20  96 NE5       30.39F WCI  15
MINERAL WELLS  LGT SNOW  22  19  89 NE7       30.41S FOG     WCI  13
STEPHENVILLE   CLOUDY    24  22  92 NE7       30.40S WCI  16
COMANCHE       CLOUDY    24  24 100 NE7       30.38R FOG     WCI  15
BROWNWOOD      CLOUDY    25  23  93 NE7       30.37S FOG     WCI  17
COLEMAN        CLOUDY    23  23  98 NE12      30.34S FOG     WCI  12
BRADY          CLOUDY    23  21  93 NE10      30.31R FOG     WCI  12
$$

TXZ143>147-156>162-174-175-280300-
CENTRAL TEXAS

CITY           SKY/WX    TMP DP  RH WIND       PRES   REMARKS
WACO           FRZ RAIN  29  27  92 NE10      30.40S WCI  20
WACO-MCGREGOR    N/A     28  21  74 NE13      30.41R WCI  18
HILLSBORO      CLOUDY    29  24  83 NE8       30.41R WCI  21
CORSICANA      CLOUDY    32  19  58 NE13      30.42R WCI  22
MEXIA          MIX PCPN  30  24  76 MISG      30.39R
HEARNE         CLOUDY    35  25  65 N8        30.39S WCI  29
CAMERON        CLOUDY    32  31  95 N9        30.38R WCI  24
TEMPLE         CLOUDY    30  25  80 N8        30.37S WCI  23
KILLEEN        FRZ RAIN  28  27  93 NE13      30.36R WCI  18
KILLEEN-SKYLRK CLOUDY    28  21  74 NE12      30.35S WCI  18
FORT HOOD      CLOUDY    28  27  96 NE12      30.36R FOG     WCI  18
GATESVILLE     MIX PCPN  30  28  93 CALM      30.40R
HAMILTON       CLOUDY    27  27 100 NE6       30.37R FOG     WCI  20
LAMPASAS       CLOUDY    28  27  95 NE7       30.34R WCI  21
$$

TXZ095>097-106>112-122>126-135>138-148>153-164>167-280300-
EAST TEXAS

CITY           SKY/WX    TMP DP  RH WIND       PRES   REMARKS
PARIS          CLOUDY    27  21  80 NE6       30.49R WCI  20
SULPHUR SPRNGS CLOUDY    28  23  81 NE7       30.49R HAZE    WCI  21
MOUNT PLEASANT CLOUDY    31  18  59 E7        30.49R WCI  24
GILMER         CLOUDY    29  19  65 NE6       30.46S WCI  23
MINEOLA        CLOUDY    32  18  55 NE5       30.46S WCI  27
TYLER          CLOUDY    30  19  63 NE9       30.43S WCI  22
LONGVIEW       CLOUDY    32  20  61 NE6       30.45R WCI  26
MARSHALL       CLOUDY    33  22  64 CALM      30.48R
ATHENS         CLOUDY    30  19  64 E8G16     30.42S WCI  23
PALESTINE      CLOUDY    33  23  68 NE8       30.42S WCI  25
JACKSONVILLE   CLOUDY    32  23  68 NE10      30.42S WCI  24
HENDERSON      CLOUDY    32  21  65 NE8       30.45S WCI  24
NACOGDOCHES    CLOUDY    34  21  60 NE5       30.43R WCI  30
LUFKIN         CLOUDY    38  24  57 NE12G18   30.42R WCI  30
$$

SUPPLEMENTAL OBSERVATIONS (CENTRAL)

CITY           SKY/WX    TMP DP  RH WIND       PRES   REMARKS
$$

SUPPLEMENTAL OBSERVATIONS (WEST)

CITY           SKY/WX    TMP DP  RH WIND       PRES   REMARKS
$$

SUPPLEMENTAL OBSERVATIONS (EAST)

CITY           SKY/WX    TMP DP  RH WIND       PRES   REMARKS
$$

SUPPLEMENTAL OBSERVATIONS ARE A COLLECTION OF AUTOMATED INSTRUMENTS
THAT ARE MAINTAINED BY A VARIETY OF FEDERAL AND STATE AGENCIES.
CERTAIN ELEMENTS...SUCH AS HUMIDITY VALUES AND SUSTAINED WIND
SPEEDS...MAY BE APPROXIMATED.



USA.gov is the U.S. government's official web portal to all federal, state and local government web resources and services.